Wind_Gust
12 11 11 11 11 11 11 11 11 11 12 12 13 12 11 12 13 11 11 11 12 12 12 12 12 12 12 11 12 12 12 11 11 11 12 12 11 11 11 11 13 12 12 11 10 10 12 13 12 10 8 11 11 11 12 12 11 11 11 12 12 10 10 10 13 14 11 8 8 10 11 9 13 14 13 12 12 12 9 13 15 15 16 15 14
12 12 12 10 11 10 10 11 12 11 11 11 11 13 12 12 11 11 11 10 11 12 14 12 12 12 11 11 10 10 10 10 10 9 10 10 10 9 10 11 11 11 10 12 11 10 10 11 12 10 8 12 10 13 14 12 13 13 12 11 12 11 7 10 11 10 12 10 9 9 10 10 11 13 12 12 12 11 13 12 13 15 16 16 15
8 9 10 10 10 9 9 10 11 12 12 11 12 12 12 10 13 13 13 12 11 11 13 13 13 12 11 11 11 10 10 10 9 8 8 8 10 9 8 9 10 11 11 11 12 11 10 11 11 11 9 11 9 10 10 11 11 14 12 11 12 11 10 10 10 11 11 11 8 9 9 9 10 13 12 10 10 11 13 12 13 14 14 14 15
9 9 9 9 9 9 10 10 11 11 12 12 12 12 11 11 11 13 13 12 11 9 12 13 14 13 12 12 11 11 11 10 10 9 9 9 9 9 9 9 10 9 9 10 11 10 10 10 11 11 10 11 11 10 9 10 10 12 12 11 11 11 10 9 9 10 10 10 9 8 9 8 8 10 11 8 9 11 12 11 10 13 14 15 14
9 9 9 10 9 10 9 9 10 11 12 12 13 12 11 10 10 12 11 12 11 12 12 12 14 14 13 14 13 12 11 11 10 10 9 9 9 9 9 9 8 9 9 10 7 11 11 12 12 12 11 11 11 11 11 10 11 11 12 11 11 11 9 9 11 10 10 10 10 8 6 8 9 9 12 14 11 9 10 11 11 12 13 13 14
8 8 9 10 12 10 11 10 11 13 13 13 14 11 11 11 11 10 11 12 10 12 13 13 13 13 12 12 12 12 12 11 10 10 10 9 9 8 8 8 9 9 9 9 11 11 11 12 12 13 13 12 12 11 11 11 11 10 11 11 12 10 9 9 10 10 10 11 8 9 8 9 8 8 12 12 12 14 15 13 9 10 13 15 14
8 8 8 9 11 12 11 12 12 13 13 13 11 11 11 11 13 14 13 12 11 11 10 12 10 11 12 13 12 11 11 10 10 10 10 11 10 10 10 10 10 9 10 11 11 11 12 11 9 10 11 10 10 11 11 9 9 9 9 10 10 10 9 9 9 9 9 9 9 8 7 8 8 11 11 10 9 11 17 19 15 14 13 16 17
9 8 8 9 11 12 11 10 11 12 11 10 10 9 10 12 13 12 12 12 12 12 11 11 11 10 11 11 12 12 12 13 12 12 11 10 9 9 9 9 10 11 11 12 12 12 12 11 11 12 11 11 10 11 12 12 10 10 9 10 10 10 9 9 8 8 8 8 8 7 7 8 7 7 9 9 12 10 14 16 20 22 20 17 14
9 9 10 10 9 8 9 9 9 10 10 10 10 11 12 12 11 11 12 12 11 11 11 12 12 11 11 12 14 13 12 10 9 8 9 9 8 10 11 12 13 13 13 13 12 13 13 13 13 13 15 12 10 10 10 9 13 14 12 11 11 10 10 9 8 7 7 6 6 6 8 8 9 11 13 12 14 15 15 14 17 17 20 20 17
9 9 10 10 8 7 7 9 10 9 10 11 11 12 12 12 11 12 12 11 11 10 10 9 10 11 12 13 13 12 11 11 13 14 6 9 9 11 11 12 14 14 14 13 12 13 13 13 14 12 16 16 14 13 14 14 13 12 15 14 13 12 10 10 8 7 6 6 7 10 12 12 11 10 11 10 10 11 13 14 18 19 19 19 15
10 10 11 8 8 7 7 7 8 9 9 9 10 12 13 12 12 12 11 11 11 11 10 12 12 12 12 14 14 13 11 12 13 10 9 9 10 11 12 13 13 13 13 14 14 14 13 14 13 12 14 11 17 15 15 15 13 9 12 12 7 11 12 10 9 8 6 5 5 8 10 12 10 9 10 11 10 11 13 14 16 17 18 21 25
12 12 12 11 9 8 7 8 9 9 9 10 10 10 9 10 10 10 11 12 12 11 12 13 11 13 13 12 13 12 10 7 9 12 12 11 9 12 12 12 12 12 13 14 14 14 13 12 12 11 15 18 18 18 15 10 10 10 10 8 8 9 8 8 8 8 7 7 7 8 9 11 11 10 11 11 13 14 13 14 14 15 17 18 19
11 12 13 13 12 11 9 9 10 10 10 10 9 9 9 9 10 11 13 15 13 15 15 13 12 12 10 12 16 17 17 6 10 10 10 7 9 9 12 12 12 12 13 13 14 13 11 10 10 11 12 9 13 13 15 14 7 12 13 12 10 10 10 11 9 8 7 7 8 9 9 9 11 9 8 10 11 14 14 15 15 15 16 18 18
13 13 13 12 11 11 10 11 11 10 9 9 10 11 11 12 12 12 14 14 16 20 8 12 11 11 12 12 13 12 11 7 5 4 4 5 8 9 11 11 11 12 11 11 11 11 10 10 10 9 10 11 13 14 15 16 17 17 16 13 13 12 8 9 8 7 5 6 7 9 7 7 10 9 8 8 11 14 15 16 15 17 17 19 19
14 13 14 13 13 12 10 10 11 10 9 10 11 12 13 12 12 11 15 17 18 16 10 10 11 11 11 13 13 13 11 8 7 7 7 8 8 7 10 10 9 9 9 9 10 11 10 10 10 9 9 12 12 14 17 19 18 16 15 14 13 12 11 10 9 9 9 8 8 9 8 7 7 7 8 9 9 11 12 15 16 18 20 20 21
12 12 13 13 13 13 11 8 8 10 9 10 11 12 12 12 11 11 12 13 12 11 8 8 10 12 13 13 12 12 11 5 8 9 9 9 10 11 10 10 8 7 8 8 7 7 7 7 8 8 9 10 8 9 11 18 18 17 15 14 14 13 13 8 9 10 11 11 10 10 9 10 6 10 10 11 11 10 11 14 16 17 18 19 21
14 12 12 11 11 10 10 9 9 8 10 11 13 12 12 12 10 11 13 11 12 12 10 9 8 10 11 10 9 8 8 5 3 7 9 11 10 11 10 9 8 9 9 9 9 9 8 7 7 8 10 11 10 11 10 10 16 16 15 14 12 10 9 8 7 6 8 8 8 7 5 2 2 2 3 4 9 10 14 16 16 15 18 22 20
16 16 16 15 13 10 7 6 7 6 7 11 10 9 10 10 10 12 13 12 11 10 9 10 9 8 8 9 8 9 9 6 2 4 8 11 8 11 11 10 10 10 11 10 9 11 13 11 6 11 13 14 9 11 11 12 15 15 14 13 11 10 9 9 9 9 4 4 3 2 2 1 2 5 6 5 5 8 13 18 17 18 20 19 24
15 15 16 16 14 13 10 9 8 7 7 8 7 6 7 7 8 7 7 9 11 11 10 11 10 9 9 8 5 8 10 7 4 5 8 11 10 10 12 13 13 11 12 12 10 11 13 13 12 12 13 14 11 10 8 10 14 14 15 14 12 11 11 10 9 9 9 9 9 9 12 10 11 10 9 8 8 9 14 16 17 17 21 20 21
15 14 14 14 14 14 11 9 7 7 9 8 8 11 10 9 9 9 9 11 12 12 11 11 12 10 8 8 8 7 9 10 8 5 8 9 8 11 12 14 14 14 12 14 14 13 15 16 15 13 15 14 12 12 10 10 13 13 11 11 11 12 11 10 10 8 8 7 8 8 10 10 11 11 12 12 13 13 14 16 16 17 19 20 21
17 16 15 15 14 14 13 11 9 8 7 8 8 6 7 10 11 11 11 11 12 12 11 11 12 11 9 8 8 8 8 8 8 5 9 9 7 6 12 11 14 15 15 14 15 15 16 16 16 11 14 15 15 15 14 12 8 13 11 12 13 13 7 11 11 2 7 8 9 11 12 11 12 12 12 13 13 13 14 14 15 16 18 21 23
19 18 18 18 17 14 13 11 8 9 8 7 10 11 10 9 10 11 10 12 14 13 11 10 11 10 9 8 8 8 8 7 11 9 11 11 8 3 8 11 13 16 15 15 15 15 16 17 16 12 15 16 16 15 15 14 12 17 17 10 9 6 11 10 8 7 8 9 11 12 13 13 13 14 14 14 14 14 14 15 15 16 18 21 24
18 18 19 19 17 16 15 13 11 8 6 6 9 10 8 10 12 13 13 12 13 14 13 10 11 10 8 8 9 10 11 10 9 11 9 11 10 8 9 11 6 12 16 16 16 17 17 17 16 13 16 16 16 16 15 15 12 15 12 10 9 6 5 9 8 8 10 11 12 13 14 14 15 16 16 16 15 14 16 16 18 20 21 21 21
18 18 18 18 17 16 15 14 12 10 9 8 8 9 10 10 10 12 13 14 13 13 12 11 11 11 10 8 8 9 10 9 8 7 7 8 11 12 12 12 10 10 13 16 16 18 19 17 17 14 16 17 16 14 13 11 17 12 11 10 7 4 9 8 9 9 10 11 13 14 15 15 15 15 15 16 18 19 21 20 19 18 19 20 20
17 18 18 18 17 16 15 14 13 12 12 10 9 8 8 11 12 10 11 13 15 15 13 13 13 12 11 10 8 7 7 8 8 9 6 7 10 12 13 13 12 14 18 15 15 16 14 17 16 15 16 18 19 17 14 13 13 11 9 6 4 9 9 10 10 11 11 11 13 14 15 15 17 19 18 18 18 19 18 17 16 18 18 19 20
18 18 18 18 19 18 17 16 14 12 13 12 12 12 10 10 12 13 12 13 12 13 13 10 11 11 11 11 10 9 8 8 8 10 7 8 8 11 13 13 12 12 15 18 15 19 18 18 18 18 15 14 17 16 16 16 9 9 6 4 9 9 9 10 10 10 12 12 13 16 19 19 19 17 16 17 18 18 18 18 18 19 18 19 21
20 19 19 19 17 17 16 16 16 14 11 12 13 14 14 14 12 13 12 13 11 12 13 12 11 10 11 11 11 11 11 11 12 12 12 14 15 16 19 19 16 18 21 22 16 19 20 16 15 12 12 13 13 10 12 11 13 10 9 9 9 9 8 9 10 10 11 13 13 16 18 17 17 17 17 17 18 18 17 18 19 19 19 20 21
21 21 20 18 18 18 18 9 13 17 14 11 12 14 15 13 13 16 17 15 15 13 12 11 10 13 13 12 12 11 11 11 13 15 14 15 16 16 17 19 19 19 22 19 19 19 20 13 17 18 18 17 15 13 11 10 9 6 8 8 8 9 5 4 6 10 10 12 13 17 19 18 18 18 17 17 18 19 18 19 19 20 19 20 22
23 23 22 20 21 18 18 18 17 15 13 9 9 10 12 13 17 18 15 13 13 17 15 16 14 14 14 16 16 13 13 16 17 8 15 10 17 19 18 18 17 16 14 16 22 19 19 18 13 15 13 11 9 9 10 9 6 8 8 7 7 8 8 10 12 12 12 13 14 14 17 19 19 18 18 19 19 20 18 19 19 20 20 19 21
25 24 22 21 21 19 18 19 17 16 14 12 9 9 4 4 6 10 12 7 11 15 12 21 23 20 15 16 16 17 20 18 15 15 14 12 9 10 10 11 11 18 17 16 17 19 15 15 13 12 11 9 9 8 7 6 5 5 5 3 8 10 11 11 12 12 12 12 13 13 16 16 17 19 20 20 21 21 19 15 20 19 20 20 22
26 27 24 22 21 19 18 19 18 15 16 16 12 11 12 10 7 6 2 5 8 9 6 7 7 14 18 17 9 11 11 20 23 17 16 13 14 15 16 17 19 20 18 18 15 15 16 14 13 10 9 8 7 8 7 6 5 4 5 6 6 6 6 11 12 10 11 12 12 12 15 15 17 17 18 19 20 21 20 18 19 20 20 21 23
28 26 26 25 22 18 21 20 17 16 16 14 13 12 12 12 11 9 11 9 8 3 5 6 10 12 9 14 16 12 13 19 21 19 17 17 17 18 18 20 20 18 12 11 15 13 13 13 12 10 9 8 8 7 6 5 5 4 6 7 8 8 9 10 12 14 12 12 12 12 16 16 16 16 17 18 18 20 20 20 19 19 20 21 22
28 27 27 27 26 24 22 20 18 17 17 15 14 14 16 16 16 13 12 11 14 13 11 6 8 8 8 12 15 15 17 19 21 20 20 20 20 19 20 19 17 14 13 13 13 13 12 11 11 10 9 8 8 7 6 8 4 4 6 8 10 11 11 11 8 12 11 11 13 14 16 16 16 16 16 17 18 20 20 20 19 18 19 20 21
28 29 27 26 25 24 23 20 19 18 16 17 17 17 17 16 14 14 13 12 11 12 11 10 7 8 7 10 13 16 22 23 22 21 21 21 22 22 19 19 11 6 7 12 13 13 11 11 12 12 11 8 7 7 5 4 4 5 6 7 10 13 14 14 13 11 11 11 13 16 17 18 16 18 19 18 19 20 21 19 19 19 19 20 21
28 24 21 21 27 25 22 21 19 17 16 16 16 17 16 15 15 15 15 15 12 10 9 10 8 6 12 10 14 21 23 23 23 23 24 24 23 21 18 21 18 12 13 13 14 14 12 11 11 11 11 7 6 6 5 7 4 6 7 9 12 13 12 12 11 10 11 11 13 15 16 16 16 16 18 19 20 21 20 20 19 19 19 19 20
25 27 26 24 28 28 26 22 22 20 17 17 16 16 14 13 15 15 13 13 14 13 10 9 10 6 7 8 16 20 21 22 23 24 24 25 24 21 22 18 17 15 12 14 14 13 12 12 12 11 10 10 9 6 4 3 5 7 11 11 11 12 12 12 10 11 9 11 12 13 14 17 17 17 18 18 17 20 20 20 20 18 19 20 20
22 21 25 25 24 23 23 22 22 22 12 13 15 14 13 13 12 12 13 13 11 13 16 14 14 13 10 12 14 16 19 21 23 24 25 25 24 18 14 17 16 16 14 12 13 14 12 11 11 11 10 8 8 8 4 6 8 10 5 9 11 11 10 11 11 10 12 13 15 15 14 17 18 17 18 19 19 19 19 19 19 19 19 19 17
20 20 20 21 22 23 22 21 20 12 15 13 13 13 13 13 14 13 12 9 11 12 12 15 10 18 19 17 13 16 23 19 21 17 15 15 16 14 13 13 15 14 14 12 12 11 10 10 10 10 10 9 8 7 3 5 6 7 9 9 10 9 8 12 5 8 9 12 16 16 17 18 19 19 17 18 18 19 19 19 19 20 20 19 18
14 12 12 13 13 20 20 18 17 18 15 12 10 12 13 12 12 11 12 11 12 11 11 15 17 15 15 22 24 21 25 23 21 21 21 19 15 13 13 14 13 13 13 12 13 11 10 10 10 7 8 9 5 5 4 6 6 8 8 10 10 10 9 10 9 9 10 15 17 17 18 19 19 19 18 18 18 18 19 19 19 18 19 19 20
8 10 10 11 10 12 14 14 14 16 13 12 12 12 13 12 12 12 13 13 13 13 13 14 13 13 15 14 22 27 22 20 20 20 19 16 12 10 11 12 13 13 14 13 11 10 10 10 9 8 7 6 4 3 3 5 7 8 8 9 10 10 9 8 9 9 12 15 16 18 19 19 19 19 19 18 18 18 18 19 19 18 18 18 19
6 7 6 9 9 10 10 13 13 12 11 10 11 11 10 10 8 8 10 11 12 12 11 14 14 16 18 18 7 9 17 19 19 17 15 15 13 9 10 12 13 13 13 12 11 10 10 9 8 7 7 6 4 2 3 6 8 8 8 9 9 9 9 7 8 8 12 14 16 17 18 18 19 19 20 19 15 17 18 18 18 18 19 19 19
6 7 7 8 8 8 8 8 9 11 9 8 10 12 12 13 15 9 9 9 9 9 12 12 16 15 15 12 11 15 18 18 17 15 14 12 10 9 9 10 12 13 13 12 11 11 10 9 8 8 7 5 3 3 5 6 7 9 9 9 10 9 9 9 8 10 13 14 16 17 17 19 20 20 20 13 19 19 19 18 18 18 18 19 18
10 9 8 7 9 9 9 9 9 10 9 9 10 6 9 13 11 12 11 13 15 14 15 17 18 17 18 10 15 13 18 18 12 14 10 9 9 9 10 11 12 12 11 11 10 10 10 9 8 7 6 6 4 5 6 7 7 8 8 8 9 9 8 9 10 12 13 14 16 17 17 18 19 19 19 18 19 19 19 19 19 18 18 19 18
12 12 11 11 11 11 10 10 10 10 11 10 11 12 13 12 13 13 13 13 13 15 17 17 17 17 13 14 14 15 15 13 13 13 14 11 11 11 11 11 12 12 12 11 10 9 10 9 8 8 6 5 5 2 5 5 6 6 7 9 8 8 9 11 13 13 14 16 17 18 18 18 19 19 18 18 18 19 19 18 19 18 18 18 18
13 12 13 14 14 14 14 13 13 13 14 12 12 13 12 13 14 13 15 15 17 16 16 17 17 17 16 13 12 12 11 11 9 11 10 10 10 10 12 12 12 13 13 10 10 9 8 8 7 6 5 5 3 2 3 5 5 6 7 8 9 9 11 12 13 15 15 16 18 18 18 19 19 20 20 19 18 17 19 19 20 15 18 17 16
17 16 16 16 16 16 17 15 13 13 13 14 14 14 14 15 15 15 15 16 17 17 17 17 16 14 12 12 11 12 10 10 9 10 11 10 11 11 11 12 13 12 12 11 10 7 8 7 6 7 5 4 4 5 6 6 7 8 7 7 9 10 11 13 14 15 15 15 17 18 19 18 19 18 16 20 19 18 18 19 17 18 17 17 17
20 18 16 17 19 19 18 17 17 17 18 18 18 18 18 19 18 17 17 19 19 18 17 16 13 12 12 11 11 10 10 10 10 10 10 11 11 12 12 12 13 12 11 10 8 10 9 8 8 6 5 5 6 7 7 8 7 7 7 8 9 11 12 15 16 15 16 16 17 18 18 18 19 19 19 18 18 18 18 19 19 18 18 17 17
15 17 19 19 19 18 18 19 20 17 20 20 20 20 20 19 18 20 21 19 17 16 16 15 15 13 12 12 12 11 11 11 12 13 13 13 11 12 11 10 11 12 11 10 9 10 9 9 8 7 7 8 9 8 8 8 8 9 9 9 10 13 17 16 17 16 15 17 17 17 17 17 18 19 19 18 17 19 19 19 19 19 18 18 17
19 19 18 18 18 18 18 18 18 18 17 16 16 17 16 18 19 18 17 16 15 14 15 15 15 14 13 13 13 13 13 14 14 14 14 13 12 11 11 10 8 10 10 11 11 10 9 9 9 9 8 9 9 9 9 8 9 9 10 10 13 17 18 17 15 16 18 19 16 16 15 15 16 17 17 16 18 18 18 17 17 18 18 16 17
19 19 19 18 17 16 15 17 16 16 16 16 17 18 18 19 18 16 15 16 16 15 15 15 14 14 14 14 14 14 15 15 14 14 14 14 13 12 12 10 10 10 10 10 10 9 9 9 9 9 9 9 9 9 8 8 9 11 12 15 16 19 19 19 14 15 18 16 16 15 14 14 15 15 16 17 16 17 17 18 18 18 17 17 17
17 18 18 18 18 17 17 17 17 17 16 16 16 17 17 18 18 17 16 16 15 15 15 15 15 15 15 14 14 15 16 16 16 15 14 14 12 11 11 11 12 11 11 10 9 9 9 8 8 9 8 8 9 9 8 9 10 13 13 14 16 19 20 20 20 18 20 17 16 14 13 13 13 14 15 18 17 17 17 17 18 17 17 17 17
Wind_Speed
6 5 4 4 5 6 5 6 6 5 6 6 6 6 5 6 6 5 5 5 5 6 6 6 6 5 5 5 5 5 5 5 4 5 5 5 4 5 4 5 5 5 5 4 3 4 5 6 5 4 2 4 4 4 4 5 4 4 4 4 4 4 3 4 5 5 4 2 2 3 3 2 4 5 5 4 4 4 4 5 6 6 5 5 5
5 5 4 3 4 4 5 5 6 5 5 5 5 6 5 5 5 5 5 4 5 6 7 6 5 6 5 5 4 4 4 4 4 3 4 4 4 3 4 5 5 5 4 5 4 3 4 5 5 4 2 4 4 5 5 4 4 5 4 4 4 4 1 3 4 3 4 3 2 2 2 2 3 5 4 4 4 4 4 3 4 5 6 5 5
2 3 4 4 4 3 4 4 5 6 6 5 6 6 5 5 6 6 6 6 5 5 6 6 6 6 5 4 4 4 3 4 3 3 3 3 3 3 2 3 4 4 4 4 5 4 4 4 4 4 3 4 4 4 4 4 3 4 5 4 4 4 3 3 3 4 4 3 2 2 2 2 3 4 4 3 3 3 4 4 3 4 4 5 4
2 3 3 3 4 4 4 4 5 5 6 5 6 6 5 5 5 6 6 5 5 3 4 6 7 6 5 5 5 4 4 4 4 3 3 3 3 3 3 3 3 3 3 4 4 4 3 4 4 4 4 5 4 4 3 3 3 4 5 4 4 4 3 3 3 3 3 3 2 1 2 1 1 2 3 1 1 2 3 3 2 3 5 5 5
2 3 4 5 4 4 4 4 4 5 6 5 6 5 5 4 4 5 5 5 5 6 4 5 6 7 6 6 6 5 5 4 4 3 3 2 3 3 3 3 3 3 3 4 4 4 4 4 5 5 5 4 4 4 4 4 3 4 4 4 4 3 2 2 3 3 3 3 3 2 0 1 2 2 4 4 3 2 2 3 3 4 4 5 4
2 2 3 4 5 5 5 4 5 6 7 6 7 5 5 5 5 4 5 5 4 5 6 6 6 6 6 5 5 5 5 4 4 3 3 3 3 2 2 2 3 3 3 3 4 5 5 4 4 5 5 5 4 4 5 5 4 3 4 3 3 3 3 3 3 3 4 3 2 2 1 2 1 2 3 4 4 4 5 5 2 2 5 5 5
1 2 1 2 3 5 5 6 6 6 6 7 5 4 5 5 6 6 5 5 4 5 4 5 4 5 6 6 5 4 4 4 3 3 4 4 4 4 4 4 3 3 4 5 5 5 5 4 4 4 5 4 4 5 4 4 3 3 3 4 3 3 3 2 2 3 3 2 2 2 1 1 1 3 3 3 2 3 6 8 6 5 5 6 7
3 2 2 3 5 5 5 5 5 5 4 4 4 3 4 5 6 5 5 6 6 5 5 5 4 4 5 5 5 5 5 5 5 4 4 3 2 3 3 3 4 4 5 5 5 5 6 5 5 5 4 4 4 4 5 5 3 4 3 3 4 4 3 3 2 2 2 2 2 1 1 2 0 1 1 2 4 3 5 6 8 9 8 7 6
3 3 3 3 3 3 3 3 3 4 4 3 4 4 5 5 5 5 5 5 4 4 4 4 4 4 4 6 6 6 5 4 3 2 2 3 2 3 4 5 5 6 6 6 5 6 6 6 6 6 8 9 9 8 8 5 5 5 5 5 5 4 3 2 2 2 1 1 1 1 2 2 2 3 4 4 5 6 5 5 6 7 8 8 7
3 3 4 3 2 1 1 3 3 3 3 4 4 5 5 5 5 5 5 4 4 4 4 4 5 5 6 5 5 4 4 4 5 9 6 3 3 3 4 5 6 6 6 6 6 6 6 6 6 10 12 13 12 9 10 11 10 7 7 6 6 5 3 3 2 1 1 1 2 3 4 4 3 3 4 3 3 4 5 6 7 8 8 8 6
4 4 4 2 2 1 1 1 2 3 3 3 4 5 6 5 5 6 4 4 5 5 4 6 5 4 5 6 6 5 3 3 6 4 5 7 4 4 5 5 6 6 6 6 6 6 5 6 5 8 10 10 10 12 12 12 12 6 9 8 3 2 4 3 2 1 1 0 0 2 3 4 3 3 3 4 3 4 5 5 6 7 7 8 9
5 5 5 5 3 2 1 1 3 3 3 3 4 4 3 4 4 4 4 6 5 5 5 6 5 5 5 6 6 5 4 3 7 8 10 10 7 5 5 5 5 5 5 6 6 6 5 5 5 4 6 9 8 8 8 7 7 7 7 7 6 7 7 2 2 2 1 1 1 2 3 4 4 3 3 4 4 5 5 6 5 6 7 7 7
5 5 6 5 5 4 3 3 3 3 4 3 3 3 3 4 4 4 3 5 3 6 8 6 6 6 5 5 6 7 6 4 8 10 8 7 7 6 5 5 5 5 5 6 6 5 4 3 3 4 4 7 7 6 7 7 5 9 11 10 8 8 8 9 8 3 2 2 2 3 3 3 4 2 2 3 4 6 6 6 6 6 6 7 7
6 6 6 6 5 4 4 4 4 3 3 3 4 4 5 6 5 5 7 6 4 10 2 6 5 5 5 6 6 5 5 6 5 1 2 5 7 7 4 4 4 5 4 3 3 3 3 3 3 3 3 5 6 7 7 8 8 8 8 6 5 6 7 7 7 6 2 0 1 2 1 1 3 2 1 2 4 5 6 7 6 7 7 8 9
7 6 6 6 6 5 4 3 4 4 3 3 5 5 6 5 6 4 6 8 10 8 3 3 4 4 4 5 5 6 4 7 5 5 5 6 5 5 4 4 3 2 2 3 4 4 4 3 3 3 2 4 5 7 8 10 9 7 7 6 5 5 4 3 3 2 3 2 2 2 2 1 1 1 2 2 3 4 4 6 8 8 9 10 10
6 6 6 6 6 5 4 2 2 3 3 4 5 6 6 6 5 5 6 7 6 5 2 2 4 5 6 6 6 5 5 5 7 8 8 8 9 5 3 3 2 1 1 2 1 1 0 1 2 2 2 3 5 8 8 9 9 9 7 6 6 5 5 5 6 7 5 3 3 3 2 3 4 3 3 4 3 3 4 5 6 7 8 8 8
7 5 5 5 4 4 5 4 2 1 4 5 6 6 5 5 4 4 5 4 5 5 4 3 3 4 5 4 4 2 2 3 3 7 8 9 7 4 3 2 2 3 3 2 2 3 2 0 1 2 3 4 7 9 9 9 8 8 7 6 5 4 3 3 4 5 6 7 7 6 4 2 2 2 2 3 3 4 5 6 6 5 7 9 9
8 8 7 7 6 4 2 3 3 2 1 4 4 4 4 4 4 5 6 5 4 3 3 3 3 2 2 2 1 3 3 3 1 4 7 9 6 4 4 4 4 4 4 3 3 4 6 8 3 4 5 6 8 10 9 8 7 7 7 6 5 4 3 3 2 3 3 3 2 0 1 1 2 4 5 4 4 6 5 7 7 7 8 8 9
8 8 8 8 7 5 3 3 3 2 2 3 2 1 2 2 2 2 1 3 4 4 4 4 3 2 2 2 3 2 4 4 2 4 7 9 6 4 4 5 5 4 4 4 3 4 5 7 9 8 8 9 10 9 6 4 6 7 7 6 5 4 4 3 2 2 2 2 2 2 4 6 4 3 2 7 6 7 6 7 7 7 8 8 9
8 7 7 7 7 6 4 2 2 2 3 3 3 3 4 4 3 3 3 4 5 5 4 4 5 3 2 2 2 1 3 3 2 3 6 7 7 3 5 5 6 6 5 5 6 6 7 7 8 11 12 11 10 9 7 6 6 6 5 4 5 5 4 3 3 1 1 1 2 2 3 3 4 4 5 5 5 6 6 7 7 7 8 8 8
9 8 7 7 7 6 5 5 3 1 2 3 3 2 2 3 5 5 5 4 5 5 4 4 5 4 3 2 2 2 2 2 2 4 8 8 6 5 5 4 6 6 6 6 6 6 6 6 7 8 11 12 12 12 11 10 7 5 4 4 5 6 3 3 4 2 1 1 3 3 4 4 4 4 4 5 5 5 5 6 6 7 7 8 9
9 9 9 9 8 7 6 5 3 3 1 1 3 4 4 4 4 5 4 5 6 5 4 3 4 4 3 2 2 2 2 1 4 5 9 10 8 2 3 4 5 7 6 6 6 6 7 7 7 8 12 13 13 13 12 11 11 8 8 9 7 4 3 2 1 1 2 2 3 4 4 4 5 5 5 5 5 5 5 6 6 7 8 10 11
9 9 10 10 9 8 7 7 5 3 1 1 2 4 3 5 6 6 6 6 6 5 4 4 4 4 3 2 1 1 1 3 4 5 8 10 9 6 6 7 4 5 7 7 7 7 7 8 8 10 13 13 13 13 13 13 11 8 10 9 8 5 3 1 1 2 3 3 4 5 5 5 5 6 6 6 6 6 6 6 8 9 10 10 10
9 9 9 9 9 8 7 7 6 4 4 2 2 3 4 4 4 5 6 6 6 6 5 4 5 4 4 2 2 2 3 3 6 7 4 7 8 9 9 9 7 4 6 7 7 8 8 8 9 12 13 14 13 12 11 10 9 10 9 8 6 3 1 1 1 2 3 4 4 5 5 5 5 5 6 6 7 8 9 9 9 9 9 9 10
9 9 9 9 9 8 7 7 6 5 5 4 3 2 3 4 4 4 5 6 7 7 6 6 5 5 4 3 2 1 1 2 2 5 6 5 7 9 10 9 8 10 8 7 7 6 10 14 13 12 13 14 15 14 12 11 11 9 8 5 4 1 2 2 3 3 4 3 4 5 5 5 6 7 8 8 9 9 8 7 7 8 9 9 10
9 9 9 9 9 9 8 8 7 6 5 5 5 3 4 4 5 5 5 5 6 7 7 5 6 5 4 4 4 3 2 2 2 3 4 5 6 7 9 9 9 9 11 10 13 15 15 14 15 14 12 10 8 7 7 7 8 7 4 1 2 2 3 3 3 3 4 4 4 5 6 7 8 8 8 8 8 8 8 8 8 8 8 8 9
11 10 9 9 9 9 8 7 7 6 5 4 5 6 6 7 4 2 4 5 7 7 8 7 6 5 5 5 4 4 4 4 4 4 4 5 6 7 8 9 13 14 11 10 11 9 10 9 8 9 10 11 10 9 9 8 6 4 2 2 3 2 2 2 3 3 3 4 5 5 8 7 7 7 7 7 8 8 8 8 8 9 9 9 10
11 11 11 9 8 9 9 7 7 7 6 4 4 5 6 5 5 6 8 6 6 5 6 5 5 6 6 5 5 5 4 4 5 6 6 6 7 7 7 8 9 8 10 9 8 9 9 10 11 8 8 7 6 5 4 3 2 2 2 2 2 2 0 3 5 3 3 4 5 7 8 8 8 8 7 8 8 8 8 8 9 9 9 9 9
12 13 11 9 10 9 8 8 7 7 6 3 3 3 4 5 8 8 8 6 5 7 7 6 4 4 5 7 7 6 6 7 8 7 8 9 8 9 8 8 7 7 9 13 11 9 9 8 5 6 5 4 3 2 3 3 2 2 2 1 1 1 2 3 4 4 4 5 5 5 7 8 8 8 8 8 9 9 9 9 9 9 9 9 10
14 12 10 10 10 9 8 8 8 7 6 5 3 2 3 2 2 3 4 2 7 11 10 6 11 10 7 7 7 7 9 8 13 13 12 10 8 9 9 9 9 11 13 12 11 8 6 6 5 4 4 3 2 2 2 1 1 1 1 1 1 2 3 3 4 4 4 5 5 4 7 7 7 8 9 9 9 9 9 9 9 9 9 9 9
13 13 12 10 10 9 8 9 8 7 7 7 5 4 4 3 2 3 2 3 6 8 6 7 4 10 10 7 3 10 10 16 18 14 13 11 12 13 13 14 16 16 14 9 6 6 6 5 4 4 3 2 2 2 2 2 1 0 1 1 1 1 2 3 4 4 4 4 4 4 6 6 7 7 8 9 9 10 9 8 9 9 9 10 10
13 13 12 12 11 9 10 9 8 7 7 6 5 5 5 5 4 4 7 6 5 2 5 6 7 8 6 6 10 4 9 15 17 15 14 14 14 15 15 16 16 15 10 8 6 5 5 5 4 3 3 2 2 2 2 1 1 1 1 1 2 2 3 3 4 5 4 4 4 5 7 7 7 7 8 8 8 9 9 9 8 8 9 9 10
15 14 13 13 12 12 10 9 8 8 8 7 6 6 7 7 7 5 4 9 8 9 8 5 2 6 5 7 10 11 14 15 17 16 16 16 16 16 16 16 14 11 10 6 5 5 4 3 3 3 3 2 2 2 2 2 1 1 1 2 3 3 3 4 4 4 4 4 5 6 7 7 7 7 7 8 8 9 9 9 9 8 9 9 9
16 15 14 13 12 11 11 9 8 8 7 7 7 7 7 7 6 6 5 2 2 6 8 9 5 6 6 8 9 12 17 18 17 17 17 17 17 17 16 11 9 6 4 4 5 5 4 3 4 4 4 2 2 2 1 1 1 1 1 2 3 4 5 5 5 4 4 4 5 7 8 8 7 7 8 8 9 9 9 9 9 9 8 9 9
14 15 17 14 13 12 10 9 9 7 7 7 7 8 7 7 7 7 7 6 6 4 4 3 6 6 2 5 10 15 17 18 18 19 19 19 18 17 15 10 8 4 5 5 5 5 4 4 3 4 4 2 2 1 1 1 1 1 2 2 4 5 4 4 4 4 4 4 5 7 7 7 7 7 8 9 9 9 9 9 9 9 9 9 9
13 12 13 14 12 14 13 10 10 9 7 7 7 7 6 5 6 6 5 5 6 6 4 3 4 5 4 4 9 14 16 17 18 19 19 20 19 17 10 8 7 6 5 6 5 5 4 4 4 4 3 3 3 1 1 0 1 1 3 4 4 4 4 4 3 4 4 4 5 6 7 7 8 8 8 8 9 9 9 9 9 9 9 9 9
11 10 12 12 12 11 10 10 10 10 8 6 7 6 5 5 5 5 4 5 4 5 7 5 5 5 5 5 8 10 13 16 17 19 20 20 20 11 5 7 6 6 6 4 5 5 4 4 4 4 3 2 2 2 0 1 1 2 2 3 4 4 3 4 4 4 4 5 6 7 7 8 9 8 8 9 9 9 9 9 9 10 9 10 11
11 10 9 9 10 10 9 9 9 9 7 6 5 5 5 5 6 5 5 3 4 4 5 6 6 8 7 6 9 9 11 14 15 13 12 12 8 6 5 5 7 6 5 4 4 3 3 3 3 3 3 2 2 1 0 0 1 2 3 3 3 3 5 5 3 3 3 5 7 7 8 8 9 9 8 9 9 9 9 9 9 9 10 10 9
8 9 9 9 8 8 8 8 8 8 7 5 3 4 5 5 5 3 4 4 5 4 4 6 7 6 6 8 10 12 14 10 9 9 9 8 6 5 5 6 5 5 5 4 5 4 3 3 3 2 2 2 1 1 0 1 1 2 3 3 3 3 2 3 3 3 4 6 7 7 7 8 9 8 8 9 9 9 9 10 9 9 9 9 9
2 4 6 7 5 5 6 6 6 6 6 4 4 4 5 5 5 5 5 5 5 5 5 6 5 5 6 6 7 12 10 9 9 9 9 7 5 4 4 5 5 5 5 5 4 3 3 3 2 2 2 2 1 0 0 1 2 2 2 3 3 3 3 2 3 3 5 6 6 7 8 9 9 9 9 8 9 9 9 9 9 9 9 9 10
2 1 2 5 5 5 5 6 6 5 4 4 4 4 3 3 2 2 4 4 4 4 4 6 6 7 8 11 5 4 4 8 8 7 6 6 5 4 4 4 5 5 5 5 4 3 3 3 2 2 2 2 1 0 0 1 2 2 2 3 3 3 3 2 2 2 5 6 7 7 8 8 8 9 9 9 10 9 9 9 9 9 9 10 10
2 1 1 2 3 3 3 4 3 3 4 3 2 3 4 5 6 3 3 3 3 3 3 4 6 5 8 10 8 9 8 8 8 7 6 5 4 3 3 3 4 5 5 4 4 3 3 3 2 2 2 1 0 0 1 2 2 3 3 3 3 3 3 2 2 3 6 6 7 8 8 9 9 9 9 10 9 9 9 9 8 9 9 9 9
4 3 3 2 3 3 3 4 3 3 3 2 2 2 3 4 3 4 4 5 6 6 6 7 6 6 7 6 10 11 8 8 7 6 4 3 3 3 3 4 4 4 4 4 3 3 3 3 2 2 1 1 1 1 1 2 2 2 2 3 3 3 3 3 3 4 6 6 7 8 9 9 8 8 9 9 9 9 9 9 9 9 9 9 9
5 4 4 4 4 4 4 4 4 4 3 5 5 5 4 4 5 5 5 5 6 6 8 7 7 7 4 5 7 7 7 6 6 5 6 4 4 4 4 4 4 4 4 4 3 3 3 3 2 2 2 1 1 0 1 1 1 2 2 3 3 3 3 3 4 5 6 7 8 8 8 8 9 9 9 9 9 9 9 9 9 9 9 8 8
6 6 5 5 5 4 4 5 5 5 6 5 4 5 4 5 5 4 6 6 8 7 7 7 8 8 7 5 5 5 5 5 3 5 4 4 4 4 4 5 5 5 5 4 3 3 3 3 2 2 2 1 0 0 0 1 1 1 2 2 3 3 4 5 6 6 7 8 8 8 8 8 9 9 9 9 9 9 9 9 10 10 9 8 8
8 8 8 8 7 7 6 6 5 5 5 4 4 5 5 6 6 6 6 7 7 7 7 8 7 6 5 5 4 5 4 4 3 4 5 3 4 4 4 4 5 5 4 4 3 3 2 2 2 2 1 1 1 1 1 1 1 3 3 2 3 4 5 5 6 7 7 7 8 8 8 9 9 8 9 9 9 8 9 10 9 9 9 9 9
9 8 7 8 9 9 9 8 7 6 7 7 7 8 6 7 7 8 8 9 8 8 8 7 6 5 5 5 5 4 4 4 3 3 4 4 5 5 5 5 5 4 4 4 3 3 3 3 3 2 2 1 2 2 2 2 2 2 2 2 3 4 5 7 8 7 7 8 8 8 8 8 9 9 8 8 8 8 9 9 9 10 10 9 8
7 9 9 10 10 9 9 10 10 10 10 9 9 10 9 8 8 9 9 8 8 7 7 6 7 6 6 5 5 4 4 4 4 5 5 5 4 5 5 5 5 4 4 4 3 4 3 3 3 2 2 2 3 3 3 3 2 3 3 3 3 5 8 10 8 8 7 8 8 8 8 8 8 9 9 9 9 9 9 9 9 9 9 9 8
9 9 9 9 9 9 9 9 9 9 8 7 7 7 8 8 9 9 8 7 6 6 6 7 7 6 6 5 5 5 5 6 5 6 6 5 5 4 4 4 4 4 4 4 4 4 4 3 3 2 2 3 3 3 3 3 3 3 4 4 6 11 12 12 9 7 10 9 7 7 7 7 8 9 9 8 8 8 8 9 8 9 8 8 8
8 9 9 9 9 8 8 8 8 8 8 8 8 8 9 9 8 7 7 7 7 7 6 6 6 6 6 6 6 6 6 6 6 6 6 5 5 5 5 4 4 4 4 4 4 4 3 3 3 3 3 3 3 3 3 3 3 4 4 6 10 12 12 13 10 10 9 7 7 6 6 6 7 7 7 8 8 8 8 8 9 8 8 8 8
8 8 8 8 8 8 7 8 8 8 8 7 8 8 8 9 8 7 7 7 7 7 6 6 6 6 6 6 6 6 7 7 6 6 5 5 5 5 4 4 5 5 5 4 3 3 3 3 3 3 3 3 3 3 3 3 3 5 7 9 10 13 13 13 10 12 14 11 7 6 5 6 7 7 7 8 8 7 8 8 8 8 8 7 8
Wind_Direction
193 208 189 188 172 172 146 136 148 156 154 165 161 162 157 157 167 164 149 173 168 164 156 155 151 147 148 153 152 149 145 143 141 138 132 131 126 123 133 129 125 121 121 119 120 121 117 116 113 105 100 105 106 112 105 103 98 88 85 90 85 69 65 81 99 114 117 79 61 63 47 341 58 31 42 42 30 42 46 45 36 35 34 29 71
196 197 196 183 177 169 158 160 159 164 161 175 176 167 171 172 149 146 173 172 182 175 168 154 154 154 152 147 146 144 146 133 137 139 136 134 130 134 141 142 134 134 140 134 131 126 128 122 117 109 92 112 123 127 126 131 122 117 108 102 101 96 60 90 90 106 121 149 118 103 84 6 72 47 41 23 31 13 39 44 50 35 31 16 14
209 179 186 179 166 164 164 167 167 169 173 184 192 180 177 173 153 164 183 181 193 187 170 157 152 152 150 149 143 137 139 135 129 142 140 154 151 152 146 150 149 151 159 156 153 144 143 137 134 134 139 134 130 120 134 135 130 116 117 115 113 111 108 106 123 114 133 124 148 125 85 72 39 42 38 43 12 6 16 30 25 35 29 15 13
229 198 174 159 159 161 179 167 173 180 188 196 199 191 178 177 174 170 184 187 178 180 172 161 153 155 154 150 154 153 148 146 146 153 157 162 177 170 174 174 177 178 181 173 169 174 165 155 152 153 154 149 146 145 152 144 142 133 136 128 125 120 108 109 96 109 134 139 145 63 76 53 111 49 20 347 14 10 11 7 16 26 16 12 7
206 202 198 194 169 180 188 186 189 192 203 203 212 191 181 174 183 184 180 193 180 163 173 172 164 163 164 167 163 164 164 159 159 162 165 174 184 185 189 195 198 206 206 200 190 198 190 195 171 168 169 161 158 163 159 166 154 152 147 135 126 121 114 101 103 109 115 107 128 120 64 74 44 41 24 0 356 338 343 346 354 5 15 6 352
219 204 187 197 212 192 190 194 207 210 212 213 213 197 178 180 190 195 188 200 181 177 175 180 176 167 162 165 162 160 160 161 170 171 166 169 188 197 206 215 221 221 214 225 220 213 214 215 188 183 187 188 178 168 168 174 168 168 146 133 118 121 110 113 106 100 100 96 91 131 130 30 14 49 19 1 355 351 357 356 328 346 353 354 354
287 266 251 206 212 229 214 204 209 214 214 216 207 188 181 189 200 201 189 193 192 188 182 176 168 159 154 153 156 146 140 147 154 166 182 188 192 187 190 204 211 223 233 228 229 229 227 219 189 188 202 207 184 182 175 169 179 166 137 138 141 139 140 123 104 99 92 107 113 76 63 114 28 9 20 345 335 4 1 346 345 353 349 344 339
314 300 265 252 250 235 228 212 219 225 225 219 211 193 185 194 209 205 180 187 196 192 179 176 160 168 151 139 129 139 161 181 181 187 199 192 194 209 225 234 236 230 229 224 220 225 226 225 204 179 198 209 219 192 171 189 183 167 166 167 163 166 150 142 128 108 93 72 38 38 24 349 31 347 333 341 357 357 13 347 336 337 338 337 325
310 311 305 285 265 247 199 200 224 233 228 221 206 201 206 206 203 196 191 190 184 185 169 161 162 175 151 142 148 170 195 181 178 181 193 182 203 226 233 239 239 245 244 237 220 219 221 213 200 187 186 207 204 196 181 187 185 188 182 184 178 172 160 150 134 114 110 17 41 34 329 331 359 352 348 356 360 347 337 336 325 330 327 324 332
304 296 286 293 319 321 169 169 192 201 216 218 210 203 203 198 195 200 197 181 171 169 153 154 177 181 156 146 159 190 201 193 186 185 172 178 208 231 238 243 243 243 244 244 230 219 222 214 201 191 200 201 198 201 192 198 203 207 175 182 183 183 176 163 157 131 51 346 3 345 324 330 343 347 336 345 337 325 328 334 328 329 324 322 317
321 304 298 309 308 308 261 189 178 194 187 191 196 204 203 189 192 200 181 155 151 128 150 178 184 167 159 156 174 203 207 206 226 244 181 184 199 228 235 241 241 242 242 244 251 245 225 222 223 183 198 215 208 198 198 198 204 198 166 180 204 210 178 174 161 156 125 314 11 314 309 310 322 332 321 330 319 330 326 323 318 321 327 329 323
333 325 316 319 310 284 255 211 214 204 189 192 193 193 179 175 184 184 160 151 138 153 176 192 150 166 177 164 164 197 234 185 166 197 203 197 191 215 235 242 241 245 244 243 245 247 243 222 215 205 205 212 220 203 196 194 193 171 144 99 72 49 34 25 162 165 172 294 262 257 287 296 316 310 321 325 329 321 317 312 310 317 316 312 306
11 352 338 331 328 325 311 265 244 227 215 206 188 179 186 188 183 166 139 120 153 230 212 191 172 177 184 174 179 190 215 234 209 194 188 183 193 207 235 232 235 238 237 235 241 246 247 234 217 204 207 189 211 210 178 157 136 120 113 104 75 64 71 59 42 56 143 182 240 264 267 308 288 300 4 332 320 304 310 309 318 312 304 295 296
45 37 34 23 356 327 303 287 268 243 214 212 210 209 211 208 189 183 177 158 224 256 161 157 172 184 189 200 203 194 197 183 215 200 185 180 178 195 238 236 236 242 244 249 257 263 261 264 258 225 197 186 199 190 164 148 146 140 143 140 116 90 71 70 80 61 42 243 254 282 91 262 297 340 347 296 298 307 311 305 311 304 298 293 298
42 34 31 30 35 26 344 304 285 280 254 213 209 212 217 221 213 179 161 195 211 239 252 184 173 193 197 205 213 211 191 135 146 158 169 181 159 181 214 223 228 226 258 276 280 276 275 267 261 260 198 193 193 178 165 158 148 142 132 116 107 94 80 79 77 102 103 96 84 78 88 115 317 307 297 292 283 294 301 297 296 291 287 282 273
29 18 21 19 15 12 24 17 285 279 268 247 230 221 212 216 206 192 192 206 206 224 212 184 182 194 205 203 195 185 153 144 163 168 165 155 148 173 196 213 197 124 92 59 32 39 277 254 237 215 188 184 132 154 159 149 143 136 125 119 116 101 82 53 34 29 30 49 69 65 64 50 11 344 350 330 306 292 280 272 269 270 284 293 295
11 1 351 6 3 0 357 351 22 225 234 233 228 221 219 215 210 184 199 199 192 199 197 177 171 168 159 168 175 152 128 129 144 136 139 147 153 176 174 178 126 100 69 55 60 56 51 111 147 137 134 112 114 124 127 142 136 133 127 123 112 107 108 97 64 54 49 56 64 58 44 53 251 258 260 258 292 313 296 289 289 308 300 297 296
357 353 345 347 339 344 5 320 323 12 301 260 242 231 220 205 192 187 193 179 173 157 142 115 91 91 128 138 142 130 122 89 74 138 147 169 190 168 168 151 124 113 105 76 75 73 56 33 52 114 111 108 116 124 138 140 135 128 127 124 128 125 126 131 136 99 73 65 79 23 205 184 233 239 240 241 220 249 297 294 308 303 291 291 294
350 344 332 329 326 316 321 345 349 39 327 276 270 213 171 143 118 153 136 132 115 112 115 119 115 106 87 90 69 80 107 101 125 171 172 180 202 169 164 149 139 136 128 112 97 97 84 58 49 74 93 109 111 112 121 128 130 141 145 149 152 148 129 146 141 144 148 173 182 183 192 195 214 257 201 188 218 230 259 278 290 288 289 292 294
333 324 321 317 315 313 306 304 265 250 220 208 236 202 158 149 152 146 146 143 135 134 141 134 124 106 93 82 95 72 106 109 98 178 176 180 218 204 165 157 151 145 143 133 123 104 95 90 72 81 98 97 94 97 102 112 130 132 142 151 155 135 133 126 67 26 118 314 302 266 273 279 271 258 267 268 254 265 268 274 278 281 282 283 285
326 326 322 318 313 309 309 312 301 227 241 266 192 218 252 163 149 168 161 153 145 147 146 138 123 117 103 84 76 56 38 103 106 170 153 167 180 221 171 159 142 143 136 132 124 118 108 93 95 82 95 96 95 89 82 68 66 96 83 83 68 82 115 132 120 233 285 278 269 272 279 280 278 275 277 276 280 279 278 271 271 272 276 281 283
324 322 320 319 319 317 310 308 296 297 320 158 229 210 195 181 168 165 162 153 153 148 146 127 117 112 108 108 114 133 111 14 137 155 153 151 158 210 190 145 146 139 134 126 120 116 114 116 112 103 97 94 91 90 84 79 73 82 78 88 94 93 95 98 120 269 290 295 304 302 299 301 300 301 297 293 291 289 289 289 281 282 280 281 282
320 319 316 312 312 313 312 309 300 290 268 194 214 246 221 189 174 167 162 159 151 150 150 142 125 122 121 107 120 125 129 125 55 121 145 148 145 142 130 137 149 148 139 136 129 123 118 114 111 113 105 102 100 98 98 98 93 100 111 108 108 138 191 68 5 313 322 313 312 308 310 308 311 311 310 311 312 310 304 300 296 292 288 283 279
318 314 309 304 303 303 304 305 299 278 256 217 189 225 223 203 185 178 174 165 160 157 165 163 145 136 129 116 81 37 28 20 47 35 106 130 135 136 137 138 156 135 127 131 130 128 130 126 124 120 111 108 103 97 90 89 105 114 114 119 140 168 30 29 339 347 316 316 316 319 318 323 316 315 319 320 314 310 304 300 296 293 289 288 285
309 306 304 302 301 298 298 295 293 284 270 243 203 192 215 204 181 189 183 182 171 167 168 170 158 144 129 129 121 99 56 49 54 45 49 91 114 126 131 133 126 117 112 114 120 113 103 111 117 112 109 106 107 105 98 99 106 110 116 147 201 49 26 5 352 337 328 327 328 321 315 317 319 315 312 307 302 298 292 290 291 292 290 287 284
293 291 293 293 293 293 291 291 287 278 268 250 237 218 220 209 190 183 202 192 178 165 153 150 136 136 136 146 147 144 136 139 132 115 108 103 103 106 116 116 107 82 85 93 100 112 117 115 113 115 116 120 121 112 109 106 102 104 117 174 56 45 14 4 351 339 334 328 320 316 320 321 316 313 304 295 293 295 300 300 302 300 298 296 295
278 275 273 277 280 281 280 279 286 286 274 263 244 238 212 209 225 211 200 187 185 176 150 148 146 153 154 154 148 151 159 161 153 149 152 142 135 130 122 110 108 107 105 116 117 113 117 118 109 96 91 83 84 97 113 137 144 149 119 69 51 38 34 10 357 327 321 320 319 317 322 316 305 300 297 299 298 298 301 299 297 297 299 298 296
274 270 268 267 268 271 271 267 267 273 272 260 256 239 233 209 180 189 217 208 175 185 169 159 162 171 167 153 153 152 156 165 168 167 161 153 147 149 139 143 145 141 132 132 127 121 116 109 114 120 123 124 128 129 122 106 100 95 71 59 56 65 98 214 234 277 306 315 309 317 319 314 309 307 304 298 298 300 302 300 298 296 296 298 293
277 272 269 262 258 255 259 264 261 261 262 242 223 253 263 230 212 208 201 197 202 178 171 165 173 217 177 166 159 166 169 180 190 169 159 158 154 149 155 156 147 140 128 125 121 127 132 133 130 134 133 131 135 136 133 127 99 91 80 27 49 7 346 354 346 337 328 316 310 309 317 317 314 312 309 307 306 306 304 301 297 296 297 293 290
279 275 269 261 256 250 248 249 248 244 241 233 197 142 72 329 310 266 235 300 295 295 287 217 202 197 189 186 181 175 189 183 137 141 145 151 145 129 119 116 114 119 129 135 134 135 141 141 143 140 144 151 150 143 137 130 124 117 110 111 306 12 353 339 333 330 323 304 301 298 316 315 309 312 312 308 307 304 304 297 294 295 294 293 294
275 275 272 264 258 258 253 248 246 236 234 236 228 183 152 118 88 119 187 283 284 282 275 299 258 196 183 168 96 44 83 125 143 147 145 141 129 124 121 120 123 130 138 131 133 138 144 145 142 142 144 147 145 130 124 132 122 109 68 15 9 353 341 326 335 324 309 301 299 297 317 313 308 308 307 307 305 305 305 301 296 295 294 296 296
264 265 270 272 272 263 256 254 247 241 233 227 222 178 166 163 160 63 61 55 53 354 276 237 197 190 219 162 143 114 128 141 143 145 143 137 134 131 129 130 135 140 150 140 133 144 148 146 149 145 146 143 129 128 127 108 92 48 14 359 359 356 337 334 336 313 306 301 304 311 321 317 314 312 312 310 307 303 301 301 301 298 297 296 295
257 257 258 264 268 267 263 256 251 242 236 218 213 200 190 187 196 171 82 61 64 64 37 5 137 151 148 165 163 151 152 152 146 142 141 138 136 134 132 133 135 137 135 145 144 146 149 146 143 144 149 134 131 122 103 91 73 42 9 354 340 341 332 331 304 290 293 292 299 318 325 323 320 317 315 312 307 302 301 299 299 299 298 300 301
256 252 251 253 259 264 259 249 240 241 239 230 220 213 206 202 199 178 166 152 16 29 45 47 55 116 132 154 141 138 143 146 143 141 138 136 132 130 128 125 124 156 183 152 149 148 146 147 143 145 133 120 117 116 122 102 61 17 349 333 332 331 329 322 310 310 302 302 320 328 328 326 323 319 316 309 303 301 301 300 302 304 305 304 302
257 251 243 239 247 254 261 258 246 234 236 233 223 218 213 202 185 189 182 173 176 164 168 88 56 18 111 150 148 147 147 144 142 140 137 135 133 129 121 124 135 147 160 158 149 147 146 143 139 131 130 130 128 127 107 78 30 355 339 335 330 330 324 320 313 306 303 307 323 330 332 323 321 321 317 305 302 301 301 303 304 304 303 299 294
253 250 249 235 233 244 249 251 249 237 226 230 227 222 209 186 188 193 183 156 144 136 110 72 89 48 66 111 142 146 144 142 141 139 137 136 136 137 141 155 149 153 153 153 146 135 135 132 129 129 127 129 129 125 114 66 347 333 345 336 325 325 321 317 315 315 306 311 324 327 326 324 325 318 307 299 297 297 301 304 303 302 297 293 293
245 239 235 235 233 233 238 243 243 237 233 230 225 210 195 186 196 176 172 179 165 142 125 136 127 95 81 112 129 132 136 136 136 137 140 145 150 152 156 153 150 143 147 139 137 137 135 133 126 125 125 127 135 127 115 351 339 330 324 318 324 306 313 318 316 317 321 333 332 330 322 321 316 310 308 304 302 302 302 302 301 297 293 289 289
240 229 227 221 222 227 235 241 238 233 235 235 227 211 189 190 182 175 173 166 155 150 145 149 142 146 160 146 149 142 129 120 114 115 125 136 155 160 150 140 138 140 138 139 142 144 135 131 131 128 128 130 129 129 58 343 335 324 323 322 307 300 279 280 268 287 298 324 334 331 326 322 318 314 310 306 303 303 303 301 299 298 298 297 297
234 217 212 210 214 223 232 235 237 226 216 218 211 199 177 174 166 170 169 158 157 158 156 156 163 155 143 144 147 139 135 140 151 149 152 158 156 145 141 141 142 136 135 135 139 140 137 139 134 129 131 130 134 131 353 340 327 320 323 312 307 317 321 331 338 332 335 344 337 332 325 321 317 314 311 307 306 305 303 301 298 298 297 298 299
261 214 206 199 204 218 237 239 230 217 207 194 196 192 174 175 176 172 164 161 162 164 164 162 156 135 136 157 165 161 155 151 148 148 147 143 136 132 136 141 140 140 141 141 145 147 146 145 143 139 139 135 126 49 12 317 319 320 310 308 320 325 330 333 339 334 340 341 334 328 323 317 314 311 310 310 310 310 305 301 299 298 297 296 295
323 238 198 195 202 203 215 227 219 200 178 187 176 180 158 144 134 154 156 156 155 152 157 156 145 140 151 148 176 253 144 143 139 138 137 134 133 137 141 141 143 140 139 143 149 149 147 142 141 135 139 138 134 80 341 323 319 317 318 316 316 329 327 330 325 327 334 328 328 325 320 314 312 310 309 312 309 306 306 303 300 299 300 299 299
350 319 180 179 164 196 192 193 174 153 161 160 161 168 153 159 155 160 144 134 117 115 113 103 115 130 118 124 140 134 126 113 112 120 125 124 124 135 132 133 138 139 142 146 147 146 138 136 140 145 135 123 93 34 333 328 326 323 326 331 335 329 327 335 335 331 325 322 325 323 318 314 309 303 300 303 311 315 312 308 304 300 301 301 302
45 50 58 128 153 163 147 135 135 145 145 145 140 120 105 117 119 123 123 119 117 114 96 88 85 104 121 120 126 125 128 135 130 126 124 128 126 127 135 133 127 127 132 133 138 135 136 135 139 137 114 87 61 14 344 338 334 322 334 341 333 328 321 327 323 325 329 321 318 316 310 308 311 313 312 315 316 316 313 311 311 309 309 308 309
39 50 70 87 91 97 103 122 113 92 80 73 76 81 98 110 117 122 118 118 116 112 113 121 127 123 127 109 112 118 120 124 134 132 129 130 134 138 127 117 115 118 121 125 128 128 128 131 131 105 97 111 81 21 321 336 326 329 340 338 329 330 321 330 329 326 321 315 310 308 310 312 313 314 317 320 322 319 316 316 315 314 312 311 312
36 40 50 68 77 93 91 85 85 88 97 96 89 94 97 94 100 100 105 108 107 112 117 126 128 131 133 125 120 109 96 91 92 98 105 115 117 115 113 115 118 121 124 124 120 122 120 116 111 115 124 106 75 331 0 27 5 4 15 351 335 334 337 332 320 317 310 304 303 307 311 316 318 319 322 325 323 322 320 320 318 315 313 313 314
42 44 50 60 66 74 81 89 87 97 97 93 98 95 93 94 98 98 99 102 108 114 116 118 116 108 103 95 84 84 99 104 100 100 108 113 112 111 116 119 118 123 124 123 122 106 98 102 110 110 105 73 41 26 56 55 44 46 25 5 339 330 323 318 317 311 305 300 301 304 306 308 311 316 311 317 326 326 322 318 316 318 317 315 315
41 48 45 56 61 66 68 74 81 89 93 93 95 96 97 96 89 88 85 90 98 105 106 105 97 86 81 81 86 89 94 98 102 106 102 99 102 111 112 115 117 113 107 104 103 105 96 86 80 72 54 35 61 57 39 36 30 26 20 358 348 333 334 327 316 306 301 300 297 295 300 304 310 318 320 325 328 329 326 323 324 323 323 322 322
35 41 49 58 65 66 67 71 72 72 78 82 89 94 97 96 90 96 101 95 88 89 89 85 85 83 83 85 89 94 96 99 102 102 104 106 106 105 105 110 114 114 108 101 91 83 81 77 68 55 62 57 44 46 46 27 24 9 0 348 350 344 327 323 312 306 306 306 294 288 291 299 310 317 322 327 330 331 329 330 329 330 328 327 329
51 52 50 48 53 56 62 68 72 73 68 67 69 68 72 84 87 89 85 81 78 76 83 89 90 90 90 92 99 102 104 105 105 105 104 101 99 101 97 89 89 98 105 95 88 85 86 75 65 56 49 49 48 44 42 30 4 2 346 338 336 331 327 327 318 311 311 302 291 289 293 304 311 318 325 332 334 334 332 331 333 331 330 333 336
56 59 60 56 55 54 55 59 62 71 72 75 76 81 84 88 84 81 85 87 85 81 81 82 89 94 101 104 105 107 104 103 102 102 102 103 100 101 99 93 86 83 87 90 91 91 84 79 67 62 53 51 43 41 31 26 6 349 341 334 329 330 331 329 320 318 321 313 301 286 295 310 317 327 340 342 341 337 338 340 338 337 338 339 342
54 52 54 56 59 61 60 66 69 67 67 71 76 77 81 87 92 85 75 74 78 78 80 84 90 93 95 97 100 104 103 101 98 99 98 99 98 95 94 98 98 94 89 89 96 89 81 73 67 58 55 50 41 36 25 12 1 347 334 329 332 335 335 337 332 329 328 322 297 281 290 304 306 313 335 354 349 347 343 337 344 343 342 344 347